Location: Newark
(48.5178°N, 4.2361°E)
Time: 00:36:13
(UTC+00:00)

Envisat - Pass Details

Date: 13 March 2021
Orbit: 764 x 766 km, 98.1° (Epoch: 11 April)

Event Time Altitude Azimuth Distance (km) Brightness Sun altitude
Rises 03:47:11 0° 33° (NNE) 3,242 7.1 -22.4°
Reaches altitude 10° 03:51:29 10° 68° (ENE) 2,308 6.6 -21.8°
Maximum altitude 03:52:56 11° 85° (E) 2,226 6.4 -21.5°
Drops below altitude 10° 03:54:23 10° 101° (ESE) 2,302 6.3 -21.3°
Sets 03:58:38 0° 136° (SE) 3,220 6.5 -20.7°
